STARLINK-31747, 59564

Orbit data source: Space-Track

STARLINK-31747, 59564 is a payload satellite owned by SpaceX/Seattle (US) in LEO that was launched on Tue, 23 Apr 2024 UTC via an FALCON 9 launch vehicle from the Air Force Eastern Test Range (AFETR). Payload-class satellites include a variety of spacecraft equipped with specific instruments for various scientific and technological missions. These include communications satellites like Starlink; space stations such as the ISS; scientific satellites like the Hubble; Earth observation satellites from companies like Planet Labs, Umbra, and HawkEye 360; GPS; miniature CubeSats for education and research; and military/defense satellites.

Loading next visibility...
Identifier
59564, 2024-076A
Orbit
LEO
Last TLE update
4 hours ago
Origin
Manufacturer
SpaceX/Seattle
Mission
Operational spacecraft
Bus & Motor
STARLINK V2M, Unknown motor
Mass
730 kg wet, ~700 kg dry
Launch date (UTC)
2024-04-23 (1 year ago)
Launch vehicle
FALCON 9
Launch site
Air Force Eastern Test Range (AFETR)
Object type
Payload
Rocket body
Debris
Shape & HBR
Unknown
Radar Cross Section
Large (>1 m²)

Expand to show TLE details & history

TLE from 4 hours ago
0 STARLINK-31747
1 59564U 24076A   25182.25002315 -.01400319  00000-0 -46730-1 0  9995
2 59564  43.0009 338.5363 0001577 265.0257 298.2401 15.33427486 68154
Epoch: 2025-07-01T06:00Z
TLE epoch observation values (Epoch: 2025-07-01T06:00:02Z)
Latitude
-15.75759°
Longitude
166.49195°
Altitude
468.21 km
Speed
7.633 km/s
True Right ascension
11h 44m 11s
True Declination
-15° 39' 51"
Sunlit
Object was in daylight at epoch
Visualization orbit readout
Latitude
42.27022°
Longitude
43.76853°
Altitude
471.333 km
Speed
7.636 km/s
Apparent Right ascension
06h 36m 08s
Apparent Declination
4° 18' 14"
Sunlit
Object is in daylight
Visualization observer readout
Local Sidereal Time
21:47:37
Azimuth
56.648° ENE
Elevation
-27.702°
Doppler factor
1
Orbital elements
Apogee altitude
468.625 km
Perigee altitude
466.466 km
Semi-major axis
6,845.682 km
Eccentricity
0.00016
Inclination
43.0009°
RAAN
338.5363°
Arg. of periapsis
265.0257°
True anomaly
Unknown
Mean anomaly
298.2401°
Eccentric anomaly
Unknown
Mean motion
3.83193 °/min
Orbital period
93.95 mins
BSTAR
-0.04673
Loading maneuver chart data...
Loading SW <> Apogee altitude chart data...
Loading historical data...
Loading historical data...
Loading historical data...
Loading historical data...
Loading historical data...
Loading historical data...
Loading historical data...

STARLINK-31747 Visibility forecast

Observer location: undefined°, undefined°

Span
Click to sort rows by Start time (UTC) header in descending order
Start Az.
Max El. time (UTC)
Max El. Az.
Max El.
End time (UTC)
End Az.
4 mins2025-07-01 13:07:13.210Z184.139° SSW2025-07-01 13:09:13.210Z148.382° SSE17.162°2025-07-01 13:11:13.210Z109.336° ESE
6 mins2025-07-01 14:45:13.210Z243.736° WSW2025-07-01 14:47:13.210Z223.06° SW42.168°2025-07-01 14:51:13.210Z73.254° E
5 mins2025-07-01 16:24:13.210Z286.815° WNW2025-07-01 16:26:13.210Z341.474° N37.653°2025-07-01 16:29:13.210Z70.522° E
5 mins2025-07-01 18:03:13.210Z293.266° NW2025-07-01 18:05:13.210Z355.05° N43.481°2025-07-01 18:08:13.210Z98.465° ESE
4 mins2025-07-01 19:42:13.210Z256.041° W2025-07-01 19:44:13.210Z197.711° SSW27.153°2025-07-01 19:46:13.210Z155.042° SSE
|